Time,TemperatureF,DewpointF,PressureIn,WindDirection,WindDirectionDegrees,WindSpeedMPH,WindSpeedGustMPH,Humidity,HourlyPrecipIn,Conditions,Clouds,dailyrainin,SoftwareType,DateUTC
2013-11-20 00:02:00,38.0,30.4,30.10,East,98,4.0,4.0,74,0.00,,,0.00,Wunderground v.1.15,2013-11-20 06:02:00,
2013-11-20 00:08:00,38.0,30.4,30.10,East,99,7.0,8.0,74,0.00,,,0.00,Wunderground v.1.15,2013-11-20 06:08:00,
2013-11-20 00:13:00,38.0,30.8,30.10,SSE,168,7.0,7.0,75,0.00,,,0.00,Wunderground v.1.15,2013-11-20 06:13:00,
2013-11-20 00:19:00,37.9,30.7,30.10,SSE,154,6.0,7.0,75,0.00,,,0.00,Wunderground v.1.15,2013-11-20 06:19:00,
2013-11-20 00:24:00,37.9,31.0,30.09,SSE,165,4.0,8.0,76,0.00,,,0.00,Wunderground v.1.15,2013-11-20 06:24:00,
2013-11-20 00:30:00,37.9,30.7,30.09,ESE,106,4.0,9.0,75,0.00,,,0.00,Wunderground v.1.15,2013-11-20 06:30:00,
2013-11-20 00:35:00,37.9,30.7,30.09,SE,132,12.0,12.0,75,0.00,,,0.00,Wunderground v.1.15,2013-11-20 06:35:00,
2013-11-20 00:42:00,38.1,30.5,30.09,SE,132,6.0,7.0,74,0.00,,,0.00,Wunderground v.1.15,2013-11-20 06:42:00,
2013-11-20 00:48:00,38.0,30.8,30.09,SSE,168,7.0,13.0,75,0.00,,,0.00,Wunderground v.1.15,2013-11-20 06:48:00,
2013-11-20 00:53:00,37.9,31.0,30.09,ESE,119,7.0,8.0,76,0.00,,,0.00,Wunderground v.1.15,2013-11-20 06:53:00,
2013-11-20 00:59:00,37.9,31.0,30.08,SSE,148,9.0,9.0,76,0.00,,,0.00,Wunderground v.1.15,2013-11-20 06:59:00,
2013-11-20 01:04:00,37.9,31.0,30.09,SE,135,8.0,8.0,76,0.00,,,0.00,Wunderground v.1.15,2013-11-20 07:04:00,
2013-11-20 01:10:00,37.8,30.9,30.09,SSE,157,7.0,8.0,76,0.00,,,0.00,Wunderground v.1.15,2013-11-20 07:10:00,
2013-11-20 01:15:00,37.7,31.1,30.09,SSE,153,6.0,8.0,77,0.00,,,0.00,Wunderground v.1.15,2013-11-20 07:15:00,
2013-11-20 01:22:00,37.7,31.1,30.09,South,181,6.0,7.0,77,0.00,,,0.00,Wunderground v.1.15,2013-11-20 07:22:00,
2013-11-20 01:28:00,37.8,31.2,30.10,SSE,168,6.0,10.0,77,0.00,,,0.00,Wunderground v.1.15,2013-11-20 07:28:00,
2013-11-20 01:33:00,37.9,31.0,30.10,SSE,156,9.0,9.0,76,0.00,,,0.00,Wunderground v.1.15,2013-11-20 07:33:00,
2013-11-20 01:39:00,37.9,31.3,30.09,SSE,151,7.0,9.0,77,0.00,,,0.00,Wunderground v.1.15,2013-11-20 07:39:00,
2013-11-20 01:44:00,37.8,31.2,30.09,SSE,158,9.0,9.0,77,0.00,,,0.00,Wunderground v.1.15,2013-11-20 07:44:00,
2013-11-20 01:50:00,37.9,31.3,30.09,SE,136,12.0,17.0,77,0.00,,,0.00,Wunderground v.1.15,2013-11-20 07:50:00,
2013-11-20 01:55:00,37.9,31.3,30.09,SE,144,8.0,10.0,77,0.00,,,0.00,Wunderground v.1.15,2013-11-20 07:55:00,
2013-11-20 02:00:00,37.9,31.7,30.09,SSE,150,7.0,9.0,78,0.00,,,0.00,Wunderground v.1.15,2013-11-20 08:00:00,
2013-11-20 02:05:00,37.8,31.6,30.09,SSE,155,9.0,14.0,78,0.00,,,0.00,Wunderground v.1.15,2013-11-20 08:05:00,
2013-11-20 02:10:00,37.9,31.7,30.10,SSE,157,11.0,14.0,78,0.00,,,0.00,Wunderground v.1.15,2013-11-20 08:10:00,
2013-11-20 02:15:00,37.9,31.3,30.09,SE,144,8.0,14.0,77,0.00,,,0.00,Wunderground v.1.15,2013-11-20 08:15:00,
2013-11-20 02:20:00,37.9,31.7,30.09,SE,146,7.0,14.0,78,0.00,,,0.00,Wunderground v.1.15,2013-11-20 08:20:00,
2013-11-20 02:25:00,37.9,31.7,30.09,SE,138,8.0,14.0,78,0.00,,,0.00,Wunderground v.1.15,2013-11-20 08:25:00,
2013-11-20 02:30:00,37.9,31.7,30.09,SE,136,8.0,14.0,78,0.00,,,0.00,Wunderground v.1.15,2013-11-20 08:30:00,
2013-11-20 02:35:00,37.9,31.7,30.09,SSE,155,9.0,10.0,78,0.00,,,0.00,Wunderground v.1.15,2013-11-20 08:35:00,
2013-11-20 02:40:00,37.9,31.7,30.10,SE,134,8.0,14.0,78,0.00,,,0.00,Wunderground v.1.15,2013-11-20 08:40:00,
2013-11-20 02:45:00,37.8,31.6,30.09,SE,135,6.0,14.0,78,0.00,,,0.00,Wunderground v.1.15,2013-11-20 08:45:00,
2013-11-20 02:50:00,37.8,31.6,30.09,South,179,7.0,14.0,78,0.00,,,0.00,Wunderground v.1.15,2013-11-20 08:50:00,
2013-11-20 02:55:00,37.8,31.9,30.09,SSE,165,8.0,11.0,79,0.00,,,0.00,Wunderground v.1.15,2013-11-20 08:55:00,
2013-11-20 03:02:00,37.8,31.9,30.09,SSE,168,7.0,7.0,79,0.00,,,0.00,Wunderground v.1.15,2013-11-20 09:02:00,
2013-11-20 03:08:00,37.7,31.8,30.09,SE,140,8.0,11.0,79,0.00,,,0.00,Wunderground v.1.15,2013-11-20 09:08:00,
2013-11-20 03:13:00,37.7,31.8,30.08,SSE,151,7.0,7.0,79,0.00,,,0.00,Wunderground v.1.15,2013-11-20 09:13:00,
2013-11-20 03:18:00,37.7,31.8,30.08,SE,138,6.0,10.0,79,0.00,,,0.00,Wunderground v.1.15,2013-11-20 09:18:00,
2013-11-20 03:23:00,37.6,31.7,30.08,SE,142,6.0,8.0,79,0.00,,,0.00,Wunderground v.1.15,2013-11-20 09:23:00,
2013-11-20 03:28:00,37.6,31.7,30.08,SE,134,7.0,9.0,79,0.00,,,0.00,Wunderground v.1.15,2013-11-20 09:28:00,
2013-11-20 03:33:00,37.6,31.7,30.07,SE,129,8.0,13.0,79,0.00,,,0.00,Wunderground v.1.15,2013-11-20 09:33:00,
2013-11-20 03:38:00,37.7,31.8,30.07,SSE,153,7.0,13.0,79,0.00,,,0.00,Wunderground v.1.15,2013-11-20 09:38:00,
2013-11-20 03:43:00,37.7,31.5,30.07,SE,135,6.0,9.0,78,0.00,,,0.00,Wunderground v.1.15,2013-11-20 09:43:00,
2013-11-20 03:48:00,37.8,31.6,30.07,SE,140,7.0,9.0,78,0.00,,,0.00,Wunderground v.1.15,2013-11-20 09:48:00,
2013-11-20 03:53:00,37.8,31.6,30.07,SSE,161,6.0,8.0,78,0.00,,,0.00,Wunderground v.1.15,2013-11-20 09:53:00,
2013-11-20 03:58:00,37.7,31.5,30.06,SE,130,6.0,10.0,78,0.00,,,0.00,Wunderground v.1.15,2013-11-20 09:58:00,
2013-11-20 04:03:00,37.7,31.5,30.06,South,186,4.0,8.0,78,0.00,,,0.00,Wunderground v.1.15,2013-11-20 10:03:00,
2013-11-20 04:08:00,37.6,31.4,30.06,SE,146,6.0,9.0,78,0.00,,,0.00,Wunderground v.1.15,2013-11-20 10:08:00,
2013-11-20 04:13:00,37.6,31.4,30.06,SSE,148,6.0,9.0,78,0.00,,,0.00,Wunderground v.1.15,2013-11-20 10:13:00,
2013-11-20 04:18:00,37.6,31.4,30.06,ESE,117,7.0,10.0,78,0.00,,,0.00,Wunderground v.1.15,2013-11-20 10:18:00,
2013-11-20 04:23:00,37.6,31.4,30.05,ESE,119,7.0,9.0,78,0.00,,,0.00,Wunderground v.1.15,2013-11-20 10:23:00,
2013-11-20 04:28:00,37.6,31.4,30.05,SSE,168,7.0,10.0,78,0.00,,,0.00,Wunderground v.1.15,2013-11-20 10:28:00,
2013-11-20 04:33:00,37.7,31.5,30.05,SSE,150,6.0,10.0,78,0.00,,,0.00,Wunderground v.1.15,2013-11-20 10:33:00,
2013-11-20 04:39:00,37.7,31.5,30.05,SSE,149,7.0,11.0,78,0.00,,,0.00,Wunderground v.1.15,2013-11-20 10:39:00,
2013-11-20 04:44:00,37.7,31.1,30.05,ESE,118,8.0,13.0,77,0.00,,,0.00,Wunderground v.1.15,2013-11-20 10:44:00,
2013-11-20 04:49:00,37.7,31.1,30.05,SSE,168,5.0,13.0,77,0.00,,,0.00,Wunderground v.1.15,2013-11-20 10:49:00,
2013-11-20 04:54:00,37.7,31.1,30.05,SSE,148,9.0,9.0,77,0.00,,,0.00,Wunderground v.1.15,2013-11-20 10:54:00,
2013-11-20 04:59:00,37.7,31.1,30.05,SSE,151,7.0,10.0,77,0.00,,,0.00,Wunderground v.1.15,2013-11-20 10:59:00,
2013-11-20 05:04:00,37.6,31.0,30.05,SSE,160,7.0,11.0,77,0.00,,,0.00,Wunderground v.1.15,2013-11-20 11:04:00,
2013-11-20 05:09:00,37.4,31.2,30.04,East,94,1.0,7.0,78,0.00,,,0.00,Wunderground v.1.15,2013-11-20 11:09:00,
2013-11-20 05:14:00,37.2,31.3,30.03,ESE,112,2.0,8.0,79,0.00,,,0.00,Wunderground v.1.15,2013-11-20 11:14:00,
2013-11-20 05:19:00,37.1,31.2,30.03,South,171,6.0,9.0,79,0.00,,,0.00,Wunderground v.1.15,2013-11-20 11:19:00,
2013-11-20 05:24:00,37.1,31.2,30.04,ESE,115,7.0,8.0,79,0.00,,,0.00,Wunderground v.1.15,2013-11-20 11:24:00,
2013-11-20 05:29:00,37.1,31.5,30.04,SE,144,6.0,8.0,80,0.00,,,0.00,Wunderground v.1.15,2013-11-20 11:29:00,
2013-11-20 05:34:00,37.1,31.2,30.04,SE,126,5.0,7.0,79,0.00,,,0.00,Wunderground v.1.15,2013-11-20 11:34:00,
2013-11-20 05:39:00,37.1,31.2,30.05,ESE,118,7.0,12.0,79,0.00,,,0.00,Wunderground v.1.15,2013-11-20 11:39:00,
2013-11-20 05:44:00,37.1,31.5,30.04,SSE,165,4.0,7.0,80,0.00,,,0.00,Wunderground v.1.15,2013-11-20 11:44:00,
2013-11-20 05:49:00,37.1,31.5,30.04,SSE,151,4.0,8.0,80,0.00,,,0.00,Wunderground v.1.15,2013-11-20 11:49:00,
2013-11-20 05:54:00,37.1,31.5,30.05,SE,135,6.0,9.0,80,0.00,,,0.00,Wunderground v.1.15,2013-11-20 11:54:00,
2013-11-20 05:59:00,37.1,31.5,30.05,SSE,159,7.0,13.0,80,0.00,,,0.00,Wunderground v.1.15,2013-11-20 11:59:00,
2013-11-20 06:04:00,37.0,31.4,30.05,SSE,161,6.0,8.0,80,0.00,,,0.00,Wunderground v.1.15,2013-11-20 12:04:00,
2013-11-20 06:09:00,37.0,31.4,30.04,SSE,162,5.0,7.0,80,0.00,,,0.00,Wunderground v.1.15,2013-11-20 12:09:00,
2013-11-20 06:14:00,37.0,31.4,30.04,SE,146,6.0,11.0,80,0.00,,,0.00,Wunderground v.1.15,2013-11-20 12:14:00,
2013-11-20 06:19:00,37.1,31.5,30.04,SE,129,7.0,12.0,80,0.00,,,0.00,Wunderground v.1.15,2013-11-20 12:19:00,
2013-11-20 06:24:00,37.1,31.5,30.04,SSE,159,6.0,9.0,80,0.00,,,0.00,Wunderground v.1.15,2013-11-20 12:24:00,
2013-11-20 06:29:00,37.1,31.5,30.04,ESE,110,8.0,12.0,80,0.00,,,0.00,Wunderground v.1.15,2013-11-20 12:29:00,
2013-11-20 06:34:00,37.2,31.3,30.04,ESE,108,6.0,11.0,79,0.00,,,0.00,Wunderground v.1.15,2013-11-20 12:34:00,
2013-11-20 06:39:00,37.2,31.3,30.04,SE,128,8.0,11.0,79,0.00,,,0.00,Wunderground v.1.15,2013-11-20 12:39:00,
2013-11-20 06:44:00,37.2,31.3,30.05,SE,141,7.0,11.0,79,0.00,,,0.00,Wunderground v.1.15,2013-11-20 12:44:00,
2013-11-20 06:49:00,37.3,31.4,30.05,SSE,167,5.0,12.0,79,0.00,,,0.00,Wunderground v.1.15,2013-11-20 12:49:00,
2013-11-20 06:54:00,37.3,31.4,30.05,SSE,149,8.0,10.0,79,0.00,,,0.00,Wunderground v.1.15,2013-11-20 12:54:00,
2013-11-20 06:59:00,37.2,31.6,30.05,South,172,10.0,12.0,80,0.00,,,0.00,Wunderground v.1.15,2013-11-20 12:59:00,
2013-11-20 07:04:00,37.2,31.6,30.05,ESE,121,8.0,11.0,80,0.00,,,0.00,Wunderground v.1.15,2013-11-20 13:04:00,
2013-11-20 07:09:00,37.2,31.6,30.06,SE,140,8.0,17.0,80,0.00,,,0.00,Wunderground v.1.15,2013-11-20 13:09:00,
2013-11-20 07:14:00,37.2,31.6,30.06,SE,130,9.0,13.0,80,0.00,,,0.00,Wunderground v.1.15,2013-11-20 13:14:00,
2013-11-20 07:19:00,37.1,31.5,30.05,ESE,116,8.0,13.0,80,0.00,,,0.00,Wunderground v.1.15,2013-11-20 13:19:00,
2013-11-20 07:24:00,37.1,31.5,30.05,SE,124,11.0,11.0,80,0.00,,,0.00,Wunderground v.1.15,2013-11-20 13:24:00,
2013-11-20 07:29:00,37.0,31.7,30.05,SSE,151,7.0,14.0,81,0.00,,,0.00,Wunderground v.1.15,2013-11-20 13:29:00,
2013-11-20 07:34:00,36.8,31.8,30.05,SSE,161,8.0,14.0,82,0.00,,,0.00,Wunderground v.1.15,2013-11-20 13:34:00,
2013-11-20 07:39:00,36.6,31.9,30.05,SSE,153,10.0,14.0,83,0.00,,,0.00,Wunderground v.1.15,2013-11-20 13:39:00,
2013-11-20 07:44:00,36.6,31.9,30.05,SE,129,9.0,14.0,83,0.00,,,0.00,Wunderground v.1.15,2013-11-20 13:44:00,
2013-11-20 07:49:00,36.6,31.9,30.05,SSE,154,7.0,14.0,83,0.00,,,0.00,Wunderground v.1.15,2013-11-20 13:49:00,
2013-11-20 07:54:00,36.4,32.0,30.05,SE,138,7.0,10.0,84,0.00,,,0.00,Wunderground v.1.15,2013-11-20 13:54:00,
2013-11-20 07:59:00,36.1,32.0,30.04,SSE,158,7.0,12.0,85,0.00,,,0.01,Wunderground v.1.15,2013-11-20 13:59:00,
2013-11-20 08:04:00,35.7,31.9,30.04,SE,124,9.0,10.0,86,0.17,,,0.02,Wunderground v.1.15,2013-11-20 14:04:00,
2013-11-20 08:09:00,35.3,32.1,30.05,SE,144,7.0,8.0,88,0.18,,,0.04,Wunderground v.1.15,2013-11-20 14:09:00,
2013-11-20 08:14:00,34.9,32.0,30.05,ESE,103,12.0,12.0,89,0.13,,,0.05,Wunderground v.1.15,2013-11-20 14:14:00,
2013-11-20 08:19:00,34.7,31.8,30.05,SE,138,7.0,12.0,89,0.13,,,0.06,Wunderground v.1.15,2013-11-20 14:19:00,
2013-11-20 08:24:00,34.6,32.0,30.05,SE,134,4.0,9.0,90,0.19,,,0.08,Wunderground v.1.15,2013-11-20 14:24:00,
2013-11-20 08:29:00,34.5,32.1,30.05,ESE,105,4.0,9.0,91,0.10,,,0.08,Wunderground v.1.15,2013-11-20 14:29:00,
2013-11-20 08:34:00,34.5,32.1,30.05,ESE,118,5.0,6.0,91,0.08,,,0.09,Wunderground v.1.15,2013-11-20 14:34:00,
2013-11-20 08:39:00,34.5,32.1,30.06,SE,139,5.0,12.0,91,0.10,,,0.10,Wunderground v.1.15,2013-11-20 14:39:00,
2013-11-20 08:45:00,34.5,32.4,30.05,East,82,4.0,5.0,92,0.07,,,0.10,Wunderground v.1.15,2013-11-20 14:45:00,
2013-11-20 08:50:00,34.5,32.4,30.06,South,175,6.0,9.0,92,0.07,,,0.11,Wunderground v.1.15,2013-11-20 14:50:00,
2013-11-20 08:55:00,34.5,32.4,30.06,SSE,161,5.0,7.0,92,0.10,,,0.12,Wunderground v.1.15,2013-11-20 14:55:00,
2013-11-20 09:00:00,34.6,32.5,30.06,SE,143,6.0,6.0,92,0.08,,,0.13,Wunderground v.1.15,2013-11-20 15:00:00,
2013-11-20 09:05:00,34.7,32.9,30.06,SE,126,4.0,8.0,93,0.18,,,0.14,Wunderground v.1.15,2013-11-20 15:05:00,
2013-11-20 09:10:00,34.7,32.9,30.06,SSE,152,5.0,6.0,93,0.08,,,0.14,Wunderground v.1.15,2013-11-20 15:10:00,
2013-11-20 09:15:00,34.8,33.0,30.06,East,101,5.0,8.0,93,0.06,,,0.15,Wunderground v.1.15,2013-11-20 15:15:00,
2013-11-20 09:20:00,34.8,33.0,30.05,SSE,152,7.0,8.0,93,0.06,,,0.15,Wunderground v.1.15,2013-11-20 15:20:00,
2013-11-20 09:25:00,35.0,33.2,30.05,SE,128,6.0,8.0,93,0.05,,,0.15,Wunderground v.1.15,2013-11-20 15:25:00,
2013-11-20 09:30:00,35.1,33.3,30.06,SE,146,5.0,9.0,93,0.00,,,0.15,Wunderground v.1.15,2013-11-20 15:30:00,
2013-11-20 09:35:00,35.2,33.4,30.06,SSE,167,6.0,8.0,93,0.00,,,0.15,Wunderground v.1.15,2013-11-20 15:35:00,
2013-11-20 09:40:00,35.2,33.4,30.06,SSE,167,4.0,9.0,93,0.00,,,0.16,Wunderground v.1.15,2013-11-20 15:40:00,
2013-11-20 09:45:00,35.2,33.4,30.05,SE,132,6.0,9.0,93,0.00,,,0.16,Wunderground v.1.15,2013-11-20 15:45:00,
2013-11-20 09:50:00,35.3,33.5,30.05,SE,138,4.0,9.0,93,0.00,,,0.16,Wunderground v.1.15,2013-11-20 15:50:00,
2013-11-20 09:55:00,35.3,33.7,30.05,South,169,6.0,7.0,94,0.04,,,0.17,Wunderground v.1.15,2013-11-20 15:55:00,
2013-11-20 10:00:00,35.4,33.8,30.05,SE,128,5.0,5.0,94,0.12,,,0.18,Wunderground v.1.15,2013-11-20 16:00:00,
2013-11-20 10:05:00,35.4,33.8,30.05,SSE,148,4.0,8.0,94,0.10,,,0.19,Wunderground v.1.15,2013-11-20 16:05:00,
2013-11-20 10:10:00,35.4,33.8,30.05,SE,140,5.0,8.0,94,0.12,,,0.20,Wunderground v.1.15,2013-11-20 16:10:00,
2013-11-20 10:15:00,35.5,33.9,30.05,ESE,123,5.0,7.0,94,0.11,,,0.21,Wunderground v.1.15,2013-11-20 16:15:00,
2013-11-20 10:20:00,35.5,33.9,30.05,ESE,122,6.0,10.0,94,0.10,,,0.22,Wunderground v.1.15,2013-11-20 16:20:00,
2013-11-20 10:25:00,35.5,33.9,30.05,SE,140,7.0,8.0,94,0.08,,,0.22,Wunderground v.1.15,2013-11-20 16:25:00,
2013-11-20 10:30:00,35.5,33.9,30.05,SSE,159,9.0,9.0,94,0.06,,,0.23,Wunderground v.1.15,2013-11-20 16:30:00,
2013-11-20 10:35:00,35.6,34.0,30.05,SSE,165,6.0,8.0,94,0.06,,,0.23,Wunderground v.1.15,2013-11-20 16:35:00,
2013-11-20 10:40:00,35.6,34.0,30.05,South,180,4.0,9.0,94,0.07,,,0.24,Wunderground v.1.15,2013-11-20 16:40:00,
2013-11-20 10:45:00,35.7,34.1,30.05,SSE,160,7.0,12.0,94,0.06,,,0.24,Wunderground v.1.15,2013-11-20 16:45:00,
2013-11-20 10:50:00,35.9,34.3,30.05,SE,142,5.0,12.0,94,0.05,,,0.25,Wunderground v.1.15,2013-11-20 16:50:00,
2013-11-20 10:55:00,36.0,34.4,30.05,SE,137,7.0,9.0,94,0.08,,,0.26,Wunderground v.1.15,2013-11-20 16:55:00,
2013-11-20 11:00:00,36.1,34.5,30.04,South,174,6.0,12.0,94,0.08,,,0.26,Wunderground v.1.15,2013-11-20 17:00:00,
2013-11-20 11:05:00,36.1,34.5,30.04,SE,146,7.0,9.0,94,0.06,,,0.27,Wunderground v.1.15,2013-11-20 17:05:00,
2013-11-20 11:10:00,36.1,34.5,30.03,East,98,2.0,11.0,94,0.06,,,0.27,Wunderground v.1.15,2013-11-20 17:10:00,
2013-11-20 11:15:00,36.1,34.5,30.02,SE,135,7.0,8.0,94,0.06,,,0.27,Wunderground v.1.15,2013-11-20 17:15:00,
2013-11-20 11:20:00,36.0,34.4,30.03,SSE,157,6.0,14.0,94,0.06,,,0.28,Wunderground v.1.15,2013-11-20 17:20:00,
2013-11-20 11:25:00,36.0,34.4,30.03,SSE,148,7.0,11.0,94,0.06,,,0.28,Wunderground v.1.15,2013-11-20 17:25:00,
2013-11-20 11:30:00,36.1,34.5,30.02,ESE,105,6.0,11.0,94,0.04,,,0.28,Wunderground v.1.15,2013-11-20 17:30:00,
2013-11-20 11:35:00,36.0,34.4,30.02,SE,140,4.0,11.0,94,0.00,,,0.28,Wunderground v.1.15,2013-11-20 17:35:00,
2013-11-20 11:40:00,35.9,34.3,30.01,SSE,148,7.0,11.0,94,0.00,,,0.28,Wunderground v.1.15,2013-11-20 17:40:00,
2013-11-20 11:45:00,35.9,34.3,30.01,North,355,2.0,9.0,94,0.00,,,0.29,Wunderground v.1.15,2013-11-20 17:45:00,
2013-11-20 11:51:00,35.9,34.3,30.01,SE,132,7.0,11.0,94,0.00,,,0.29,Wunderground v.1.15,2013-11-20 17:51:00,
2013-11-20 11:56:00,35.9,34.3,30.00,ESE,113,4.0,10.0,94,0.00,,,0.29,Wunderground v.1.15,2013-11-20 17:56:00,
2013-11-20 12:01:00,36.0,34.7,30.01,SE,138,9.0,9.0,95,0.00,,,0.29,Wunderground v.1.15,2013-11-20 18:01:00,
2013-11-20 12:06:00,36.1,34.5,30.00,SE,140,8.0,9.0,94,0.00,,,0.29,Wunderground v.1.15,2013-11-20 18:06:00,
2013-11-20 12:11:00,36.1,34.5,30.01,SE,136,5.0,9.0,94,0.00,,,0.29,Wunderground v.1.15,2013-11-20 18:11:00,
2013-11-20 12:16:00,36.1,34.5,30.01,SSE,154,7.0,10.0,94,0.00,,,0.29,Wunderground v.1.15,2013-11-20 18:16:00,
2013-11-20 12:22:00,36.1,34.5,30.00,SSE,152,7.0,7.0,94,0.00,,,0.30,Wunderground v.1.15,2013-11-20 18:22:00,
2013-11-20 12:27:00,36.1,34.8,30.01,SSE,154,7.0,9.0,95,0.00,,,0.30,Wunderground v.1.15,2013-11-20 18:27:00,
2013-11-20 12:32:00,36.1,34.8,30.00,SE,132,7.0,7.0,95,0.00,,,0.30,Wunderground v.1.15,2013-11-20 18:32:00,
2013-11-20 12:38:00,36.1,34.8,30.00,SSE,155,7.0,9.0,95,0.00,,,0.30,Wunderground v.1.15,2013-11-20 18:38:00,
2013-11-20 12:43:00,36.1,34.8,30.00,SSE,152,7.0,7.0,95,0.00,,,0.30,Wunderground v.1.15,2013-11-20 18:43:00,
2013-11-20 12:48:00,36.1,34.8,29.99,SE,139,5.0,9.0,95,0.00,,,0.30,Wunderground v.1.15,2013-11-20 18:48:00,
2013-11-20 12:53:00,36.0,34.7,29.99,SE,137,4.0,6.0,95,0.00,,,0.30,Wunderground v.1.15,2013-11-20 18:53:00,
2013-11-20 12:58:00,36.0,34.7,29.99,SE,130,2.0,9.0,95,0.00,,,0.31,Wunderground v.1.15,2013-11-20 18:58:00,
2013-11-20 13:03:00,36.0,34.7,29.99,East,95,1.0,4.0,95,0.00,,,0.31,Wunderground v.1.15,2013-11-20 19:03:00,
2013-11-20 13:08:00,36.1,34.8,29.99,ENE,76,4.0,8.0,95,0.00,,,0.31,Wunderground v.1.15,2013-11-20 19:08:00,
2013-11-20 13:13:00,36.1,34.8,29.99,SSE,155,4.0,4.0,95,0.00,,,0.31,Wunderground v.1.15,2013-11-20 19:13:00,
2013-11-20 13:18:00,36.2,34.9,29.99,SE,144,6.0,8.0,95,0.00,,,0.31,Wunderground v.1.15,2013-11-20 19:18:00,
2013-11-20 13:23:00,36.2,34.9,29.99,ESE,116,5.0,6.0,95,0.00,,,0.31,Wunderground v.1.15,2013-11-20 19:23:00,
2013-11-20 13:28:00,36.2,34.9,29.99,ESE,107,4.0,9.0,95,0.00,,,0.31,Wunderground v.1.15,2013-11-20 19:28:00,
2013-11-20 13:33:00,36.2,34.9,29.99,SE,144,7.0,8.0,95,0.00,,,0.31,Wunderground v.1.15,2013-11-20 19:33:00,
2013-11-20 13:38:00,36.2,34.9,29.99,ESE,115,8.0,8.0,95,0.00,,,0.31,Wunderground v.1.15,2013-11-20 19:38:00,
2013-11-20 13:43:00,36.2,34.9,29.99,SE,134,4.0,8.0,95,0.00,,,0.31,Wunderground v.1.15,2013-11-20 19:43:00,
2013-11-20 13:48:00,36.2,34.9,29.98,East,96,0.0,8.0,95,0.00,,,0.31,Wunderground v.1.15,2013-11-20 19:48:00,
2013-11-20 13:53:00,36.3,35.0,29.98,East,94,2.0,4.0,95,0.00,,,0.31,Wunderground v.1.15,2013-11-20 19:53:00,
2013-11-20 13:58:00,36.3,35.0,29.98,SE,144,1.0,7.0,95,0.00,,,0.31,Wunderground v.1.15,2013-11-20 19:58:00,
2013-11-20 14:03:00,36.3,35.0,29.97,ESE,111,5.0,5.0,95,0.00,,,0.31,Wunderground v.1.15,2013-11-20 20:03:00,
2013-11-20 14:08:00,36.4,35.1,29.97,ESE,121,1.0,5.0,95,0.00,,,0.31,Wunderground v.1.15,2013-11-20 20:08:00,
2013-11-20 14:13:00,36.4,35.1,29.97,ESE,121,1.0,5.0,95,0.00,,,0.31,Wunderground v.1.15,2013-11-20 20:13:00,
2013-11-20 14:18:00,36.5,35.2,29.97,SE,130,4.0,6.0,95,0.00,,,0.31,Wunderground v.1.15,2013-11-20 20:18:00,
2013-11-20 14:23:00,36.6,35.3,29.97,ESE,106,0.0,4.0,95,0.00,,,0.31,Wunderground v.1.15,2013-11-20 20:23:00,
2013-11-20 14:28:00,36.6,35.3,29.97,ESE,103,1.0,5.0,95,0.00,,,0.31,Wunderground v.1.15,2013-11-20 20:28:00,
2013-11-20 14:33:00,36.6,35.3,29.97,East,98,4.0,5.0,95,0.00,,,0.31,Wunderground v.1.15,2013-11-20 20:33:00,
2013-11-20 14:38:00,36.6,35.3,29.96,East,101,1.0,5.0,95,0.00,,,0.31,Wunderground v.1.15,2013-11-20 20:38:00,
2013-11-20 14:43:00,36.6,35.3,29.96,East,90,0.0,5.0,95,0.00,,,0.31,Wunderground v.1.15,2013-11-20 20:43:00,
2013-11-20 14:48:00,36.6,35.3,29.96,SE,140,1.0,6.0,95,0.00,,,0.31,Wunderground v.1.15,2013-11-20 20:48:00,
2013-11-20 14:53:00,36.5,35.2,29.96,NW,322,2.0,2.0,95,0.00,,,0.31,Wunderground v.1.15,2013-11-20 20:53:00,
2013-11-20 14:58:00,36.5,35.2,29.96,NE,49,1.0,8.0,95,0.00,,,0.31,Wunderground v.1.15,2013-11-20 20:58:00,
2013-11-20 15:03:00,36.6,35.3,29.96,SSE,165,4.0,4.0,95,0.00,,,0.31,Wunderground v.1.15,2013-11-20 21:03:00,
2013-11-20 15:08:00,36.6,35.3,29.96,ESE,107,1.0,5.0,95,0.00,,,0.31,Wunderground v.1.15,2013-11-20 21:08:00,
2013-11-20 15:14:00,36.6,35.3,29.96,South,173,2.0,2.0,95,0.00,,,0.31,Wunderground v.1.15,2013-11-20 21:14:00,
2013-11-20 15:19:00,36.6,35.3,29.96,East,90,1.0,6.0,95,0.00,,,0.31,Wunderground v.1.15,2013-11-20 21:19:00,
2013-11-20 15:24:00,36.7,35.4,29.96,SE,139,1.0,6.0,95,0.00,,,0.31,Wunderground v.1.15,2013-11-20 21:24:00,
2013-11-20 15:29:00,36.7,35.7,29.96,NNE,15,1.0,6.0,96,0.00,,,0.31,Wunderground v.1.15,2013-11-20 21:29:00,
2013-11-20 15:34:00,36.7,35.7,29.96,SSE,161,1.0,5.0,96,0.00,,,0.31,Wunderground v.1.15,2013-11-20 21:34:00,
2013-11-20 15:39:00,36.7,35.4,29.96,SSE,162,1.0,6.0,95,0.00,,,0.31,Wunderground v.1.15,2013-11-20 21:39:00,
2013-11-20 15:44:00,36.8,35.5,29.96,SSE,157,1.0,4.0,95,0.00,,,0.31,Wunderground v.1.15,2013-11-20 21:44:00,
2013-11-20 15:49:00,36.8,35.5,29.96,SE,146,6.0,6.0,95,0.00,,,0.31,Wunderground v.1.15,2013-11-20 21:49:00,
2013-11-20 15:54:00,36.8,35.5,29.96,SE,140,1.0,6.0,95,0.00,,,0.31,Wunderground v.1.15,2013-11-20 21:54:00,
2013-11-20 15:59:00,36.8,35.8,29.96,SE,124,0.0,6.0,96,0.00,,,0.31,Wunderground v.1.15,2013-11-20 21:59:00,
2013-11-20 16:04:00,36.8,35.8,29.96,SE,135,1.0,4.0,96,0.00,,,0.31,Wunderground v.1.15,2013-11-20 22:04:00,
2013-11-20 16:09:00,36.8,35.8,29.96,SE,128,0.0,2.0,96,0.00,,,0.31,Wunderground v.1.15,2013-11-20 22:09:00,
2013-11-20 16:14:00,36.8,35.8,29.96,SE,141,1.0,4.0,96,0.00,,,0.31,Wunderground v.1.15,2013-11-20 22:14:00,
2013-11-20 16:19:00,36.8,35.8,29.96,East,79,1.0,4.0,96,0.00,,,0.31,Wunderground v.1.15,2013-11-20 22:19:00,
2013-11-20 16:24:00,36.8,35.8,29.96,SE,131,2.0,6.0,96,0.00,,,0.31,Wunderground v.1.15,2013-11-20 22:24:00,
2013-11-20 16:29:00,36.8,35.8,29.96,SE,125,2.0,7.0,96,0.00,,,0.31,Wunderground v.1.15,2013-11-20 22:29:00,
2013-11-20 16:34:00,36.8,35.8,29.96,WNW,289,2.0,3.0,96,0.00,,,0.31,Wunderground v.1.15,2013-11-20 22:34:00,
2013-11-20 16:39:00,36.8,35.8,29.97,NNW,333,2.0,4.0,96,0.00,,,0.31,Wunderground v.1.15,2013-11-20 22:39:00,
2013-11-20 16:44:00,36.7,35.7,29.97,East,79,1.0,4.0,96,0.00,,,0.31,Wunderground v.1.15,2013-11-20 22:44:00,
2013-11-20 16:49:00,36.7,35.7,29.97,ENE,66,1.0,5.0,96,0.00,,,0.31,Wunderground v.1.15,2013-11-20 22:49:00,
2013-11-20 16:54:00,36.8,35.8,29.97,WSW,240,0.0,2.0,96,0.00,,,0.31,Wunderground v.1.15,2013-11-20 22:54:00,
2013-11-20 16:59:00,36.7,35.7,29.97,SE,136,1.0,5.0,96,0.00,,,0.31,Wunderground v.1.15,2013-11-20 22:59:00,
2013-11-20 17:04:00,36.6,35.6,29.97,ESE,113,2.0,5.0,96,0.00,,,0.31,Wunderground v.1.15,2013-11-20 23:04:00,
2013-11-20 17:09:00,36.6,35.6,29.97,SSW,200,2.0,2.0,96,0.00,,,0.31,Wunderground v.1.15,2013-11-20 23:09:00,
2013-11-20 17:14:00,36.6,35.6,29.97,ENE,59,2.0,4.0,96,0.00,,,0.31,Wunderground v.1.15,2013-11-20 23:14:00,
2013-11-20 17:19:00,36.6,35.6,29.97,East,79,2.0,6.0,96,0.00,,,0.31,Wunderground v.1.15,2013-11-20 23:19:00,
2013-11-20 17:24:00,36.6,35.6,29.97,ENE,61,0.0,4.0,96,0.00,,,0.31,Wunderground v.1.15,2013-11-20 23:24:00,
2013-11-20 17:29:00,36.6,35.6,29.97,ESE,103,1.0,4.0,96,0.00,,,0.31,Wunderground v.1.15,2013-11-20 23:29:00,
2013-11-20 17:34:00,36.6,35.6,29.97,North,355,1.0,2.0,96,0.00,,,0.31,Wunderground v.1.15,2013-11-20 23:34:00,
2013-11-20 17:39:00,36.6,35.6,29.97,ENE,69,1.0,4.0,96,0.00,,,0.31,Wunderground v.1.15,2013-11-20 23:39:00,
2013-11-20 17:44:00,36.6,35.6,29.98,WNW,285,1.0,3.0,96,0.00,,,0.31,Wunderground v.1.15,2013-11-20 23:44:00,
2013-11-20 17:50:00,36.6,35.6,29.98,ENE,57,0.0,3.0,96,0.00,,,0.31,Wunderground v.1.15,2013-11-20 23:50:00,
2013-11-20 17:55:00,36.6,35.6,29.99,ESE,108,0.0,2.0,96,0.00,,,0.31,Wunderground v.1.15,2013-11-20 23:55:00,
2013-11-20 18:00:00,36.6,35.6,29.99,SE,139,2.0,2.0,96,0.00,,,0.31,Wunderground v.1.15,2013-11-21 00:00:00,
2013-11-20 18:05:00,36.6,35.6,29.99,SE,131,2.0,6.0,96,0.00,,,0.31,Wunderground v.1.15,2013-11-21 00:05:00,
2013-11-20 18:10:00,36.7,35.7,29.99,East,101,0.0,6.0,96,0.00,,,0.31,Wunderground v.1.15,2013-11-21 00:10:00,
2013-11-20 18:15:00,36.7,35.7,29.99,WNW,284,1.0,6.0,96,0.00,,,0.31,Wunderground v.1.15,2013-11-21 00:15:00,
2013-11-20 18:20:00,36.7,35.7,29.99,South,188,3.0,6.0,96,0.00,,,0.31,Wunderground v.1.15,2013-11-21 00:20:00,
2013-11-20 18:25:00,36.7,35.7,29.99,NE,44,0.0,4.0,96,0.00,,,0.31,Wunderground v.1.15,2013-11-21 00:25:00,
2013-11-20 18:30:00,36.7,35.7,30.00,East,94,1.0,7.0,96,0.00,,,0.31,Wunderground v.1.15,2013-11-21 00:30:00,
2013-11-20 18:35:00,36.7,35.7,30.00,SSE,164,0.0,5.0,96,0.00,,,0.31,Wunderground v.1.15,2013-11-21 00:35:00,
2013-11-20 18:40:00,36.7,35.7,30.00,SSE,154,4.0,7.0,96,0.00,,,0.31,Wunderground v.1.15,2013-11-21 00:40:00,
2013-11-20 18:45:00,36.7,35.7,30.00,SSE,155,5.0,7.0,96,0.00,,,0.31,Wunderground v.1.15,2013-11-21 00:45:00,
2013-11-20 18:50:00,36.7,35.7,30.00,SE,144,5.0,8.0,96,0.00,,,0.31,Wunderground v.1.15,2013-11-21 00:50:00,
2013-11-20 18:55:00,36.7,35.7,30.00,SSE,159,4.0,6.0,96,0.00,,,0.31,Wunderground v.1.15,2013-11-21 00:55:00,
2013-11-20 19:03:00,36.7,35.7,30.01,SE,138,2.0,2.0,96,0.00,,,0.31,Wunderground v.1.15,2013-11-21 01:03:00,
2013-11-20 19:08:00,36.7,35.7,30.01,South,173,4.0,7.0,96,0.00,,,0.31,Wunderground v.1.15,2013-11-21 01:08:00,
2013-11-20 19:13:00,36.7,35.7,30.01,SE,141,6.0,6.0,96,0.00,,,0.31,Wunderground v.1.15,2013-11-21 01:13:00,
2013-11-20 19:18:00,36.7,35.7,30.01,SE,140,4.0,7.0,96,0.00,,,0.31,Wunderground v.1.15,2013-11-21 01:18:00,
2013-11-20 19:23:00,36.7,35.7,30.01,SE,130,2.0,3.0,96,0.00,,,0.31,Wunderground v.1.15,2013-11-21 01:23:00,
2013-11-20 19:28:00,36.7,35.7,30.01,ESE,119,2.0,7.0,96,0.00,,,0.31,Wunderground v.1.15,2013-11-21 01:28:00,
2013-11-20 19:33:00,36.7,35.7,30.00,East,92,4.0,5.0,96,0.00,,,0.31,Wunderground v.1.15,2013-11-21 01:33:00,
2013-11-20 19:38:00,36.7,35.7,30.00,South,173,1.0,6.0,96,0.00,,,0.31,Wunderground v.1.15,2013-11-21 01:38:00,
2013-11-20 19:43:00,36.7,35.7,30.00,SE,127,0.0,6.0,96,0.00,,,0.31,Wunderground v.1.15,2013-11-21 01:43:00,
2013-11-20 19:48:00,36.7,35.7,30.01,SE,128,2.0,6.0,96,0.00,,,0.31,Wunderground v.1.15,2013-11-21 01:48:00,
2013-11-20 19:53:00,36.8,35.8,30.01,ESE,119,0.0,1.0,96,0.00,,,0.31,Wunderground v.1.15,2013-11-21 01:53:00,
2013-11-20 19:58:00,36.7,35.7,30.01,South,178,4.0,4.0,96,0.00,,,0.31,Wunderground v.1.15,2013-11-21 01:58:00,
2013-11-20 20:03:00,36.7,35.7,30.01,SSE,150,1.0,4.0,96,0.00,,,0.31,Wunderground v.1.15,2013-11-21 02:03:00,
2013-11-20 20:08:00,36.8,35.8,30.01,SW,221,1.0,5.0,96,0.00,,,0.31,Wunderground v.1.15,2013-11-21 02:08:00,
2013-11-20 20:13:00,36.8,35.8,30.01,ENE,69,3.0,5.0,96,0.00,,,0.31,Wunderground v.1.15,2013-11-21 02:13:00,
2013-11-20 20:18:00,36.8,35.8,30.01,SE,134,1.0,5.0,96,0.00,,,0.31,Wunderground v.1.15,2013-11-21 02:18:00,
2013-11-20 20:23:00,36.8,35.8,30.02,SE,126,1.0,4.0,96,0.00,,,0.31,Wunderground v.1.15,2013-11-21 02:23:00,
2013-11-20 20:28:00,36.8,35.8,30.02,SE,140,1.0,6.0,96,0.00,,,0.31,Wunderground v.1.15,2013-11-21 02:28:00,
2013-11-20 20:33:00,36.8,35.8,30.02,SSE,147,1.0,2.0,96,0.00,,,0.31,Wunderground v.1.15,2013-11-21 02:33:00,
2013-11-20 20:38:00,36.8,35.8,30.02,SSE,151,2.0,5.0,96,0.00,,,0.31,Wunderground v.1.15,2013-11-21 02:38:00,
2013-11-20 20:43:00,36.9,35.9,30.02,SSE,148,4.0,4.0,96,0.00,,,0.31,Wunderground v.1.15,2013-11-21 02:43:00,
2013-11-20 20:48:00,36.9,35.9,30.02,SSE,148,0.0,6.0,96,0.00,,,0.31,Wunderground v.1.15,2013-11-21 02:48:00,
2013-11-20 20:53:00,36.9,35.9,30.02,South,180,3.0,4.0,96,0.00,,,0.31,Wunderground v.1.15,2013-11-21 02:53:00,
2013-11-20 20:58:00,36.9,35.9,30.02,SSE,153,4.0,6.0,96,0.00,,,0.31,Wunderground v.1.15,2013-11-21 02:58:00,
2013-11-20 21:03:00,37.0,36.0,30.01,SSE,153,5.0,6.0,96,0.00,,,0.31,Wunderground v.1.15,2013-11-21 03:03:00,
2013-11-20 21:08:00,37.0,36.0,30.01,SE,134,2.0,6.0,96,0.00,,,0.31,Wunderground v.1.15,2013-11-21 03:08:00,
2013-11-20 21:14:00,37.1,36.3,30.02,South,175,4.0,4.0,97,0.00,,,0.31,Wunderground v.1.15,2013-11-21 03:14:00,
2013-11-20 21:19:00,37.1,36.3,30.02,SSE,155,5.0,7.0,97,0.00,,,0.31,Wunderground v.1.15,2013-11-21 03:19:00,
2013-11-20 21:24:00,37.2,36.4,30.02,SE,140,5.0,6.0,97,0.00,,,0.31,Wunderground v.1.15,2013-11-21 03:24:00,
2013-11-20 21:29:00,37.3,36.5,30.02,SSE,148,4.0,7.0,97,0.00,,,0.31,Wunderground v.1.15,2013-11-21 03:29:00,
2013-11-20 21:34:00,37.3,36.5,30.02,SE,146,6.0,8.0,97,0.00,,,0.31,Wunderground v.1.15,2013-11-21 03:34:00,
2013-11-20 21:39:00,37.4,36.6,30.02,SE,134,4.0,8.0,97,0.00,,,0.31,Wunderground v.1.15,2013-11-21 03:39:00,
2013-11-20 21:44:00,37.4,36.6,30.02,SE,131,5.0,7.0,97,0.00,,,0.31,Wunderground v.1.15,2013-11-21 03:44:00,
2013-11-20 21:49:00,37.4,36.6,30.02,SE,146,5.0,9.0,97,0.00,,,0.31,Wunderground v.1.15,2013-11-21 03:49:00,
2013-11-20 21:54:00,37.5,36.7,30.02,SSE,155,5.0,6.0,97,0.00,,,0.31,Wunderground v.1.15,2013-11-21 03:54:00,
2013-11-20 21:59:00,37.5,36.7,30.02,SSE,165,4.0,7.0,97,0.00,,,0.31,Wunderground v.1.15,2013-11-21 03:59:00,
2013-11-20 22:04:00,37.5,36.7,30.02,South,179,6.0,7.0,97,0.00,,,0.31,Wunderground v.1.15,2013-11-21 04:04:00,
2013-11-20 22:09:00,37.5,36.7,30.02,SSE,159,4.0,6.0,97,0.00,,,0.31,Wunderground v.1.15,2013-11-21 04:09:00,
2013-11-20 22:14:00,37.6,36.8,30.02,SE,138,4.0,6.0,97,0.00,,,0.31,Wunderground v.1.15,2013-11-21 04:14:00,
2013-11-20 22:19:00,37.6,36.8,30.02,SSE,147,4.0,6.0,97,0.00,,,0.31,Wunderground v.1.15,2013-11-21 04:19:00,
2013-11-20 22:24:00,37.6,36.8,30.02,SSE,150,4.0,5.0,97,0.00,,,0.31,Wunderground v.1.15,2013-11-21 04:24:00,
2013-11-20 22:29:00,37.6,36.8,30.02,SE,144,5.0,6.0,97,0.00,,,0.31,Wunderground v.1.15,2013-11-21 04:29:00,
2013-11-20 22:34:00,37.6,36.8,30.02,SE,142,2.0,6.0,97,0.00,,,0.31,Wunderground v.1.15,2013-11-21 04:34:00,
2013-11-20 22:39:00,37.6,36.8,30.02,SE,139,4.0,6.0,97,0.00,,,0.31,Wunderground v.1.15,2013-11-21 04:39:00,
2013-11-20 22:44:00,37.7,36.9,30.02,SE,143,4.0,5.0,97,0.00,,,0.31,Wunderground v.1.15,2013-11-21 04:44:00,
2013-11-20 22:49:00,37.7,36.9,30.03,SSE,154,2.0,5.0,97,0.00,,,0.31,Wunderground v.1.15,2013-11-21 04:49:00,
2013-11-20 22:54:00,37.7,36.9,30.03,South,169,4.0,4.0,97,0.00,,,0.31,Wunderground v.1.15,2013-11-21 04:54:00,
2013-11-20 22:59:00,37.7,36.9,30.03,SE,140,2.0,6.0,97,0.00,,,0.31,Wunderground v.1.15,2013-11-21 04:59:00,
2013-11-20 23:01:00,37.7,36.9,30.03,SSE,157,2.0,5.0,97,0.00,,,0.31,Wunderground v.1.15,2013-11-21 05:01:00,
2013-11-20 23:03:00,37.7,36.9,30.03,SE,139,2.0,4.0,97,0.00,,,0.31,Wunderground v.1.15,2013-11-21 05:03:00,
2013-11-20 23:08:00,37.7,36.9,30.03,SSE,150,4.0,4.0,97,0.00,,,0.31,Wunderground v.1.15,2013-11-21 05:08:00,
2013-11-20 23:13:00,37.7,36.9,30.04,SE,143,2.0,4.0,97,0.00,,,0.31,Wunderground v.1.15,2013-11-21 05:13:00,
2013-11-20 23:18:00,37.7,36.9,30.04,SSE,152,2.0,5.0,97,0.00,,,0.31,Wunderground v.1.15,2013-11-21 05:18:00,
2013-11-20 23:23:00,37.7,36.9,30.04,SE,144,4.0,4.0,97,0.00,,,0.31,Wunderground v.1.15,2013-11-21 05:23:00,
2013-11-20 23:28:00,37.6,36.8,30.04,SE,138,4.0,4.0,97,0.00,,,0.31,Wunderground v.1.15,2013-11-21 05:28:00,
2013-11-20 23:33:00,37.5,36.5,30.04,SE,142,2.0,4.0,96,0.00,,,0.31,Wunderground v.1.15,2013-11-21 05:33:00,
2013-11-20 23:38:00,37.3,36.3,30.04,SSE,150,2.0,4.0,96,0.00,,,0.31,Wunderground v.1.15,2013-11-21 05:38:00,
2013-11-20 23:43:00,37.1,36.1,30.04,SE,144,1.0,4.0,96,0.00,,,0.31,Wunderground v.1.15,2013-11-21 05:43:00,